www.pogodaiklimat.ru

Погода и климат >> Архив погоды >> Австралия >> Tibooburra Airport


ПОГОДА в Tibooburra Airport

  • Прогноз погоды в Tibooburra Airport
  • Монитор погоды в Tibooburra Airport
  • Климат города

АРХИВ ПОГОДЫ в Tibooburra Airport

Время (UTC), дата Ветер
(напр.,м/с)
 
Видим.   Явления Облачность Т
(С)
Тd
(С)
f
(%)
Тe
(С)
Тes
(С)
Комфортность P
(гПа)
Po
(гПа)
Тmin
(С)
Tmax
(С)
R
(мм)
R24
(мм)
S
(см)
23 17.05 ЮВ 5 н/о н/о +10.4 +1.8 55 +8 +8 1028.3 1007.2
22 17.05 Ю 4 н/о н/о +7.4 +1.0 64 +4 +4 1027.9 1006.8
00 18.05 ЮВ 6 н/о н/о +12.9 +1.9 47 +11 +11 1028.4 1007.3
01 18.05 ЮВ 7 н/о н/о +13.8 +1.8 44 +12 +12 1028.2 1007.1
02 18.05 ЮВ 6 н/о н/о +14.7 +1.9 42 +13 +13 1027.5 1006.4 +6.5
03 18.05 Ю 6 н/о н/о +15.6 +1.7 39 +14 +14 1026.6 1005.5
05 18.05 Ю 7 н/о н/о +17.3 +1.7 35 +16 +16 1025.3 1004.2
04 18.05 Ю 7 н/о н/о +16.8 +1.3 35 +16 +16 1025.6 1004.5
06 18.05 Ю 7 н/о н/о +17.3 +1.7 35 +16 +16 1024.9 1003.8
07 18.05 Ю 6 н/о н/о +16.7 +1.6 36 +16 +16 1024.9 1003.8
08 18.05 Ю 5 н/о н/о +15.7 +2.5 41 +15 +15 1025.2 1004.1
09 18.05 Ю 6 н/о н/о +14.5 +4.2 50 +13 +13 1025.5 1004.4
11 18.05 Ю 5 н/о н/о +13.2 +5.1 58 +11 +11 1025.7 1004.6
10 18.05 Ю 5 н/о н/о +13.7 +4.6 54 +12 +12 1025.6 1004.5
12 18.05 Ю 5 н/о н/о +12.4 +5.3 62 +10 +10 1025.6 1004.5
13 18.05 Ю 4 н/о н/о +11.6 +5.5 66 +10 +10 1025.5 1004.4
14 18.05 Ю 4 н/о н/о +10.8 +5.3 69 +9 +9 1025.3 1004.2 +17.9
15 18.05 Ю 4 н/о н/о +10.1 +5.3 72 +8 +8 1024.9 1003.8
17 18.05 Ю 3 н/о н/о +9.5 +5.5 76 +7 +7 1024.7 1003.6
16 18.05 Ю 4 н/о н/о +9.7 +5.1 73 +7 +7 1024.6 1003.5
18 18.05 Ю 2 н/о н/о +8.7 +5.1 78 +7 +7 1024.7 1003.6
19 18.05 Ю 2 н/о н/о +8.8 +5.5 80 +7 +7 1024.8 1003.7
20 18.05 Ю 2 н/о н/о +8.3 +5.4 82 +6 +6 1025.1 1004.0
21 18.05 Ю 2 н/о н/о +8.1 +6.1 87 +6 +6 1025.8 1004.7
23 18.05 Ю 4 н/о н/о +12.6 +7.5 71 +11 +11 1026.9 1005.8
22 18.05 Ю 2 н/о н/о +9.4 +6.7 83 +8 +8 1026.4 1005.3
00 19.05 ЮВ 5 н/о н/о +15.5 +8.3 62 +14 +14 1027.0 1005.9
01 19.05 ЮВ 6 н/о н/о +17.2 +7.8 54 +16 +16 1026.7 1005.6
02 19.05 В 5 н/о н/о +17.8 +7.0 49 +17 +17 1025.9 1004.8 +7.5
03 19.05 В 5 н/о н/о +18.6 +6.1 44 +19 +19 1025.2 1004.1
05 19.05 ЮВ 5 н/о н/о +19.8 +4.7 37 +20 +20 1023.8 1002.8
04 19.05 Ю 4 н/о н/о +19.7 +5.7 40 +20 +20 1024.3 1003.2
06 19.05 ЮВ 5 н/о н/о +19.9 +3.2 33 +20 +20 1023.7 1002.7
07 19.05 ЮВ 5 н/о н/о +19.7 +3.4 34 +20 +20 1024.2 1003.1
08 19.05 Ю 4 н/о н/о +18.1 +3.2 37 +18 +18 1024.4 1003.3
09 19.05 Ю 3 н/о н/о +16.3 +3.4 42 +16 +16 1024.7 1003.6
11 19.05 ЮЗ 2 н/о н/о +14.0 +3.2 48 +14 +14 1025.6 1004.5
10 19.05 ЮЗ 2 н/о н/о +14.7 +3.2 46 +15 +15 1025.2 1004.1
12 19.05 ЮЗ 3 н/о н/о +13.3 +3.1 50 +13 +13 1025.6 1004.5
13 19.05 ЮЗ 3 н/о н/о +12.5 +2.9 52 +11 +11 1025.6 1004.5
14 19.05 ЮЗ 3 н/о н/о +11.6 +2.6 54 +10 +10 1025.5 1004.4 +21.0
15 19.05 Ю 3 н/о н/о +12.1 +3.3 55 +11 +11 1025.2 1004.1
17 19.05 ЮЗ 2 н/о н/о +11.0 +3.3 59 +10 +10 1025.0 1003.9
16 19.05 Ю 2 н/о н/о +12.6 +3.8 55 +12 +12 1025.1 1004.0
18 19.05 З 3 н/о н/о +9.7 +2.3 60 +8 +8 1025.2 1004.1
19 19.05 ЮЗ 2 н/о н/о +11.2 +3.0 57 +10 +10 1025.4 1004.3
20 19.05 ЮЗ 3 н/о н/о +10.9 +2.5 56 +10 +10 1025.7 1004.6
21 19.05 Ю 3 н/о н/о +10.8 +2.4 56 +9 +9 1026.5 1005.4
23 19.05 Ю 4 н/о н/о +13.6 +3.9 52 +12 +12 1028.2 1007.1
22 19.05 Ю 3 н/о н/о +10.7 +1.8 54 +9 +9 1027.4 1006.3
00 20.05 ЮВ 5 н/о н/о +15.5 +4.6 48 +15 +15 1028.2 1007.1
01 20.05 Ю 6 н/о н/о +17.6 +5.9 46 +17 +17 1027.9 1006.8
02 20.05 ЮВ 5 н/о н/о +18.1 +5.3 43 +18 +18 1027.3 1006.2 +9.6
03 20.05 Ю 5 н/о н/о +18.9 +3.9 37 +19 +19 1026.4 1005.3
05 20.05 Ю 6 н/о н/о +19.7 +3.4 34 +20 +20 1025.1 1004.0
04 20.05 Ю 6 н/о н/о +19.8 +3.1 33 +20 +20 1025.5 1004.4
06 20.05 Ю 7 н/о н/о +19.2 +3.0 34 +19 +19 1025.1 1004.0
07 20.05 Ю 7 н/о н/о +18.9 +2.7 34 +19 +19 1025.2 1004.1
08 20.05 Ю 6 н/о н/о +17.5 +2.3 36 +17 +17 1025.5 1004.4
09 20.05 Ю 4 н/о н/о +16.0 +1.3 37 +15 +15 1026.2 1005.1
11 20.05 Ю 4 н/о н/о +13.9 +2.2 45 +13 +13 1027.7 1006.6
10 20.05 Ю 4 н/о н/о +14.8 +1.7 41 +14 +14 1027.1 1006.0
12 20.05 Ю 5 н/о н/о +14.1 +3.0 47 +13 +13 1028.0 1006.9
13 20.05 Ю 5 н/о н/о +13.1 +2.9 50 +11 +11 1028.2 1007.1
14 20.05 ЮВ 4 н/о н/о +12.3 +3.0 53 +11 +11 1028.1 1007.0 +20.7
15 20.05 Ю 4 н/о н/о +11.4 +3.4 58 +9 +9 1027.9 1006.8
17 20.05 Ю 3 н/о н/о +9.9 +3.9 66 +8 +8 1027.0 1005.9
16 20.05 ЮВ 4 н/о н/о +10.4 +3.4 62 +8 +8 1027.5 1006.4
18 20.05 Ю 4 н/о н/о +9.5 +4.3 70 +7 +7 1027.1 1006.0
19 20.05 Ю 3 н/о н/о +8.5 +3.8 72 +6 +6 1027.0 1005.9
20 20.05 Ю 2 н/о н/о +7.7 +3.9 77 +6 +6 1027.1 1006.0
21 20.05 ЮЗ 3 н/о н/о +6.9 +3.5 79 +4 +4 1028.3 1007.2
23 20.05 Ю 6 н/о н/о +11.6 +5.3 65 +9 +9 1029.7 1008.5
22 20.05 ЮЗ 3 н/о н/о +8.2 +3.9 74 +6 +6 1028.7 1007.6
00 21.05 Ю 7 н/о н/о +13.9 +6.3 60 +12 +12 1030.3 1009.1
01 21.05 Ю 7 н/о н/о +16.3 +7.0 54 +15 +15 1030.0 1008.8
02 21.05 Ю 6 н/о н/о +17.6 +6.8 49 +17 +17 1029.3 1008.1 +6.8
03 21.05 Ю 5 н/о н/о +18.7 +5.9 43 +19 +19 1028.1 1007.0
05 21.05 Ю 5 н/о н/о +20.0 +5.3 38 +20 +20 1027.1 1006.0
04 21.05 Ю 5 н/о н/о +19.6 +5.6 40 +20 +20 1027.4 1006.3
06 21.05 Ю 6 н/о н/о +20.4 +4.8 36 +21 +21 комфорт 1027.0 1005.9
07 21.05 Ю 5 н/о н/о +19.9 +4.4 36 +20 +20 1027.0 1005.9
08 21.05 Ю 4 н/о н/о +18.1 +4.7 41 +18 +18 1027.6 1006.5
09 21.05 ЮЗ 3 н/о н/о +15.7 +4.1 46 +16 +16 1027.9 1006.8
11 21.05 З 3 н/о н/о +13.7 +4.0 52 +13 +13 1028.6 1007.5
10 21.05 ЮЗ 3 н/о н/о +14.2 +3.9 50 +13 +13 1028.3 1007.2
12 21.05 ЮЗ 4 н/о н/о +12.5 +3.7 55 +11 +11 1028.7 1007.6
13 21.05 ЮЗ 5 н/о н/о +13.1 +4.0 54 +11 +11 1028.6 1007.5
14 21.05 ЮЗ 4 н/о н/о +12.3 +3.8 56 +11 +11 1028.5 1007.4 +21.1
15 21.05 Ю 3 н/о н/о +11.0 +3.5 60 +9 +9 1028.3 1007.2
17 21.05 З 3 н/о н/о +9.4 +3.4 66 +7 +7 1028.5 1007.4
16 21.05 ЮЗ 3 н/о н/о +10.2 +3.7 64 +9 +9 1028.4 1007.3
18 21.05 ЮЗ 3 н/о н/о +8.8 +3.2 68 +6 +6 1028.4 1007.3
19 21.05 З 3 н/о н/о +8.2 +3.3 71 +6 +6 1028.6 1007.5
20 21.05 ЮЗ 4 н/о н/о +7.5 +3.2 74 +4 +4 1029.1 1007.9
21 21.05 З 4 н/о н/о +7.4 +3.3 75 +4 +4 1029.5 1008.3
23 21.05 ЮЗ 4 н/о н/о +12.2 +5.1 62 +11 +11 1030.7 1009.5
22 21.05 ЮЗ 4 н/о н/о +8.9 +3.9 71 +6 +6 1029.9 1008.7
00 22.05 Ю 6 н/о н/о +14.9 +5.1 52 +13 +13 1030.8 1009.6
01 22.05 Ю 6 н/о н/о +16.9 +5.5 47 +16 +16 1030.0 1008.8
02 22.05 Ю 7 н/о н/о +17.8 +5.4 44 +17 +17 1029.0 1007.8 +7.1
03 22.05 Ю 7 н/о н/о +18.0 +4.2 40 +17 +17 1028.0 1006.9
05 22.05 Ю 8 н/о н/о +18.7 +3.3 36 +18 +18 1026.5 1005.4
04 22.05 Ю 7 н/о н/о +18.1 +3.6 38 +17 +17 1026.8 1005.7
06 22.05 Ю 8 н/о н/о +18.3 +3.0 36 +18 +18 1026.4 1005.3
07 22.05 Ю 8 н/о н/о +17.9 +3.0 37 +17 +17 1026.7 1005.6
08 22.05 Ю 6 н/о н/о +16.8 +3.8 42 +16 +16 1026.6 1005.5
09 22.05 Ю 4 н/о н/о +15.8 +3.9 45 +15 +15 1026.9 1005.8
11 22.05 Ю 4 н/о н/о +13.7 +4.3 53 +13 +13 1027.6 1006.5
10 22.05 Ю 4 н/о н/о +14.5 +3.6 48 +13 +13 1027.5 1006.4
12 22.05 Ю 3 н/о н/о +12.7 +3.9 55 +12 +12 1027.8 1006.7
13 22.05 Ю 4 н/о н/о +11.8 +4.1 59 +10 +10 1027.7 1006.6
14 22.05 Ю 4 н/о н/о +11.6 +4.3 61 +10 +10 1027.5 1006.4 +19.4
15 22.05 Ю 5 н/о н/о +11.3 +4.7 64 +9 +9 1026.9 1005.8
17 22.05 ЮЗ 3 н/о н/о +9.2 +4.2 71 +7 +7 1026.6 1005.5
16 22.05 Ю 4 н/о н/о +10.9 +4.8 66 +9 +9 1027.0 1005.9
18 22.05 Ю 3 н/о н/о +9.0 +4.6 74 +7 +7 1026.6 1005.5
19 22.05 Ю 3 н/о н/о +8.3 +4.3 76 +6 +6 1026.4 1005.3
20 22.05 ЮЗ 3 н/о н/о +7.7 +4.7 81 +5 +5 1026.9 1005.8
21 22.05 Ю 3 н/о н/о +7.7 +5.0 83 +5 +5 1027.3 1006.2
23 22.05 Ю 4 н/о н/о +12.7 +6.3 65 +11 +11 1028.7 1007.6
22 22.05 ЮЗ 4 н/о н/о +8.6 +5.2 79 +6 +6 1028.1 1007.0
00 23.05 ЮВ 6 н/о н/о +14.8 +6.4 57 +13 +13 1028.7 1007.6
01 23.05 ЮВ 6 н/о н/о +16.8 +6.9 52 +16 +16 1028.4 1007.3
02 23.05 ЮВ 6 н/о н/о +17.7 +6.6 48 +17 +17 1027.2 1006.1 +7.5
03 23.05 ЮВ 6 н/о н/о +19.1 +6.6 44 +19 +19 1025.6 1004.5
05 23.05 ЮВ 6 н/о н/о +19.9 +6.3 41 +20 +20 1024.3 1003.2
04 23.05 ЮВ 6 н/о н/о +19.6 +6.4 42 +20 +20 1024.7 1003.6
06 23.05 Ю 5 н/о н/о +20.1 +6.5 41 +21 +21 комфорт 1023.8 1002.8
07 23.05 ЮВ 6 н/о н/о +19.7 +6.1 41 +20 +20 1023.8 1002.8
08 23.05 Ю 4 н/о н/о +18.4 +6.6 46 +18 +18 1024.5 1003.4
09 23.05 Ю 4 н/о н/о +16.7 +6.2 50 +16 +16 1025.0 1003.9
11 23.05 Ю 4 н/о н/о +15.2 +7.0 58 +14 +14 1025.4 1004.3
10 23.05 Ю 3 н/о н/о +15.5 +6.5 55 +15 +15 1025.3 1004.2
12 23.05 ЮВ 5 н/о н/о +15.7 +7.7 59 +15 +15 1025.1 1004.0
13 23.05 ЮВ 5 н/о н/о +15.3 +8.1 62 +14 +14 1025.1 1004.0
14 23.05 Ю 5 н/о н/о +15.0 +8.5 65 +14 +14 1025.1 1004.0 +20.7
15 23.05 Ю 5 н/о н/о +14.6 +8.5 67 +13 +13 1024.7 1003.6
17 23.05 Ю 5 н/о н/о +13.3 +8.6 73 +11 +11 1024.1 1003.0
16 23.05 ЮВ 5 н/о н/о +13.9 +8.5 70 +12 +12 1024.6 1003.5
18 23.05 Ю 5 н/о н/о +12.6 +8.5 76 +11 +11 1023.9 1002.9
19 23.05 ЮВ 5 н/о н/о +12.1 +8.2 77 +10 +10 1023.9 1002.9
20 23.05 ЮВ 5 н/о н/о +11.8 +8.3 79 +9 +9 1024.3 1003.2
21 23.05 ЮВ 5 н/о н/о +11.6 +8.3 80 +9 +9 1024.6 1003.5
23 23.05 ЮВ 6 н/о н/о +11.9 +8.4 79 +9 +9 1025.2 1004.1
22 23.05 ЮВ 6 н/о н/о +11.5 +8.4 81 +9 +9 1024.6 1003.5
00 24.05 ЮВ 6 н/о н/о +13.5 +8.4 71 +11 +11 1025.4 1004.3
01 24.05 ЮВ 7 н/о н/о +15.5 +8.3 62 +14 +14 1025.2 1004.1
02 24.05 ЮВ 7 н/о н/о +16.7 +7.9 56 +16 +16 1024.8 1003.7 +11.5
03 24.05 ЮВ 5 н/о н/о +17.6 +7.6 52 +17 +17 1023.7 1002.7
05 24.05 ЮВ 5 н/о н/о +19.3 +7.4 46 +20 +20 1022.3 1001.3
04 24.05 ЮВ 5 н/о н/о +18.8 +7.6 48 +19 +19 1022.6 1001.6
06 24.05 ЮВ 4 н/о н/о +19.4 +7.5 46 +20 +20 1022.3 1001.3
07 24.05 ЮВ 4 н/о н/о +18.7 +7.5 48 +19 +19 1022.6 1001.6
08 24.05 ЮВ 3 н/о н/о +17.4 +7.2 51 +18 +18 1023.0 1002.0
09 24.05 ЮВ 3 н/о н/о +16.0 +7.2 56 +16 +16 1023.6 1002.6
11 24.05 Ю 4 н/о н/о +14.4 +7.2 62 +13 +13 1024.3 1003.2
10 24.05 Ю 4 н/о н/о +14.6 +6.4 58 +14 +14 1024.2 1003.1
12 24.05 ЮВ 5 н/о н/о +14.2 +7.3 63 +13 +13 1024.2 1003.1
13 24.05 ЮВ 4 н/о н/о +13.7 +6.8 63 +12 +12 1024.1 1003.0
14 24.05 ЮВ 4 н/о н/о +13.1 +6.5 64 +12 +12 1023.8 1002.8 +19.8
15 24.05 Ю 4 н/о н/о +11.6 +5.9 68 +10 +10 1023.5 1002.5
17 24.05 ЮВ 4 н/о н/о +11.4 +5.5 67 +9 +9 1023.1 1002.1
16 24.05 ЮВ 4 н/о н/о +12.0 +5.9 66 +10 +10 1023.2 1002.2
18 24.05 ЮВ 4 н/о н/о +11.2 +5.1 66 +9 +9 1023.0 1002.0
19 24.05 ЮВ 3 н/о н/о +10.7 +4.8 67 +9 +9 1023.1 1002.1
20 24.05 ЮВ 4 н/о н/о +10.1 +4.7 69 +8 +8 1023.3 1002.3
21 24.05 ЮВ 4 н/о н/о +10.6 +4.5 66 +8 +8 1023.9 1002.9
22 24.05 ЮВ 4 н/о н/о +11.3 +4.5 63 +9 +9 1024.6 1003.5

 

Местоположение метеостанции Tibooburra Airport (Новый Южный Уэльс, Австралия): широта -29.45 долгота 142.05 высота над уровнем моря 177 м.

В архиве по умолчанию представлена погода в Tibooburra Airport за последнюю неделю. Архивные данные за месяц целиком и за предыдущие месяцы, начиная с января 2011 года, Вы можете получить, выбрав интересующий диапазон дат из раскрывающегося списка и нажав кнопку "Ввод!".


*Определитесь, кто Вы:
робот инопланетянин человек

Внимание! Время в таблицах - всемирное. Для получения местного времени необходимо прибавить поправку, которая в Tibooburra Airport равна 10 ч.

Смотрите также архив погоды в соседних городах и на ближайших метеорологических станциях:

Погода в White Cliffs Aws (Новый Южный Уэльс, Австралия) (184 км)
Погода в Fowlers Gap Aws (Новый Южный Уэльс, Австралия) (184 км)
Погода в Ballera Gas Field (Квинсленд, Австралия) (227 км)
Погода в Moomba Airport (Южная Австралия, Австралия) (235 км)
Погода в Thargomindah Airport (Квинсленд, Австралия) (237 км)
Погода в Wilcannia Aerodrome (Новый Южный Уэльс, Австралия) (263 км)
Погода в Broken Hill Airport (Новый Южный Уэльс, Австралия) (289 км)
Погода в Leigh Creek Airport (Южная Австралия, Австралия) (372 км)
Погода в Bourke Airport Aws (Новый Южный Уэльс, Австралия) (382 км)
Погода в Marree Aero (Южная Австралия, Австралия) (387 км)

Пояснения к столбцам:

Ветер - указаны скорость ветра в м/с - средняя за 10 мин, порывы в срок и между сроками (в фигурных скобках) и направление, откуда дует ветер: С - северный, СВ - северо-восточный, В - восточный, ЮВ - юго-восточный, Ю - южный, ЮЗ - юго-западный, З - западный, СЗ - северо-западный.
Видимость - горизонтальная дальность видимости в метрах или километрах. При видимости от 1 до 10 км при отсутствии осадков обычно наблюдается дымка, при ухудшении видимости до 1 км и менее - туман. В сухую погоду видимость может ухудшаться дымом, пылью или мглою.
Явления - указаны атмосферные явления, наблюдавшиеся в срок или в последний час перед сроком; фигурными скобками обозначены явления, наблюдавшиеся между сроками (за 1-3 часа до срока); квадратными скобками обозначены град или гололедные отложения с указанием их диаметра в мм.
Облачность - указаны через наклонную черту общая и нижняя облачность в баллах и высота нижней границы облаков в метрах; квадратными скобками обозначены формы облаков: Ci - перистые, Cs - перисто-слоистые, Cc - перисто-кучевые, Ac - высококучевые, As - высокослоистые, Sc - слоисто-кучевые, Ns - слоисто-дождевые, Cu - кучевые, Cb - кучево-дождевые. Подробнее классификацию облаков см. в Атласе облаков (PDF).
T - Температура воздуха - температура, измеренная на высоте 2 м над землей.
Td - Температура точки росы - температура, при понижении до которой содержащийся в воздухе водяной пар достигнет насыщения.
f - Относительная влажность воздуха - влажноcть воздуха, измеренная на высоте 2 м над землей.
Te - Эффективная температура - температура, которую ощущает одетый по сезону человек в тени. Характеристика душности погоды. При расчете учитывается влияние влажности воздуха и скорости ветра на теплоощущения человека.
Tes - Эффективная температура на солнце - температура, которую ощущает человек, с поправкой на солнечный нагрев. Характеристика знойности погоды. Зависит от высоты солнца над горизонтом, облачности и скорости ветра. Ночью, в пасмурную погоду, а также при ветре 12 м/с и более поправка равна нулю.
P - Атмосферное давление - приведенное к уровню моря атмосферное давление.
Po - Атмосферное давление - измеренное на уровне метеостанции атмосферное давление.
Tmin - Минимальная температура - минимум температуры воздуха на высоте 2 м над землей.
Tmax - Максимальная температура - максимум температуры воздуха на высоте 2 м над землей.
R - Количество осадков - Количество выпавших осадков за период времени, мм. При наведении курсора мыши на число - период времени, за который выпало указанное количество осадков.
R24 - Количество осадков - Количество выпавших осадков за 24 часа, мм.
S - Снежный покров - Высота снежного покрова, см. При наведении курсора мыши на число - состояние снежного покрова и степень покрытия местности в баллах.